Weather Roundup
Issued by NWS

Home | Current Version | Previous Version | Graphics & Text | Print | Product List | Glossary Off
Versions: 1 2 3 4 5 6 7 8 9 10 11 12 13 14 15 16 17 18 19 20 21 22 23 24 25 26 27 28 29 30 31 32 33 34 35 36 37 38 39 40 41 42 43 44 45 46 47 48 49 50

000
NZUS93 KARX 162310
HRRWXR

CURRENT HOURLY OBSERVATIONS ACROSS
MUCH OF THE UPPER MISSISSIPPI VALLEY
NATIONAL WEATHER SERVICE LA CROSSE WI
500 PM CST SAT DEC 16 2017


...SOUTHEAST MINNESOTA...


CITY           SKY/WX    TMP DP  RH WIND       PRES   REMARKS
ROCHESTER      PTCLDY    28  26  92 NE8       29.95R WCI  20
ROCHESTER/MAYO FAIR      29  25  86 NE5       29.97R WCI  24
WINONA           N/A     30  23  74 CALM      30.01R
AUSTIN         PTCLDY    34  28  80 CALM      29.94R
ALBERT LEA     CLOUDY    36  27  69 NE5       29.95R WCI  32
DODGE CENTER   CLOUDY    28  27  93 NE8       29.96R WCI  20
PRESTON        PTCLDY    29  25  83 NE8       29.95R WCI  21
OWATONNA       MOCLDY    30  27  86 NE7       29.97R WCI  23
FARIBAULT      CLOUDY    28  27  93 N7        29.98R WCI  21
$$

...ELSEWHERE IN MINNESOTA...


CITY           SKY/WX    TMP DP  RH WIND       PRES   REMARKS
MINNEAPOLIS    CLOUDY    28  22  78 E9        30.00R WCI  19
INTNL FALLS    CLOUDY    11   8  88 E5        30.00R FOG     WCI   3
DULUTH         CLOUDY    21  15  78 SE13      30.00R WCI   9
RED WING       PTCLDY    27  18  69 NE7       30.00R WCI  19
REDWOOD FALLS  CLOUDY    33  27  78 N7        29.98R WCI  27
MANKATO        CLOUDY    29  27  92 NE7       29.98R WCI  22
WORTHINGTON    PTCLDY    35  28  75 N9        29.94R WCI  28
FAIRMONT       CLOUDY    34  28  79 N8        29.96R WCI  27
$$

...SOUTHWEST WISCONSIN...


CITY           SKY/WX    TMP DP  RH WIND       PRES   REMARKS
LA CROSSE      PTCLDY    29  21  72 NE5       30.01R WCI  24
PRAIRIE DU CHI CLEAR     37  26  62 CALM      29.97R
BOSCOBEL       CLEAR     34  25  69 VRB3      29.99R
LONE ROCK      MOCLDY    32  27  81 NE5       29.99R WCI  27
PLATTEVILLE    CLEAR     38  26  61 NE6       29.95R WCI  33
FORT MC COY    CLOUDY    27  24  87 E6        30.02R WCI  21
CAMP DOUGLAS   CLOUDY    27  25  92 E6        30.01R WCI  20
MAUSTON-NEW LI CLOUDY    28  25  91 E5        30.01R WCI  22
VIROQUA        FAIR      26  25  94 CALM      29.96R
WIS DELLS      CLOUDY    27  25  91 NE7       29.99R WCI  20
$$

...ELSEWHERE IN WISCONSIN...


CITY           SKY/WX    TMP DP  RH WIND       PRES   REMARKS
MILWAUKEE      CLOUDY    37  33  85 NE13      29.99R WCI  29
MADISON        CLOUDY    32  29  88 E10       30.00R WCI  24
GREEN BAY      MOCLDY    23  17  78 N8        30.06R WCI  14
EAU CLAIRE     CLOUDY    23  16  74 NE7       30.03R WCI  15
BLACK RVR FLS  CLOUDY    27  21  77 E6        30.01R WCI  21
MEDFORD        CLOUDY    20  15  78 E7        30.02R WCI  11
WAUSAU         CLOUDY    21  15  78 E6        30.03R WCI  13
WIS RAPIDS     CLOUDY    23  16  74 E6        30.05R WCI  16
MARSHFIELD     CLOUDY    22  18  85 E9        30.02R WCI  12
RICE LAKE      CLOUDY    22  16  75 CALM      30.04R
$$

...NORTHEAST IOWA...


CITY           SKY/WX    TMP DP  RH WIND       PRES   REMARKS
WATERLOO       CLOUDY    34  21  59 N5        29.91R WCI  30
DUBUQUE        CLEAR     39  27  62 NE6       29.94R WCI  35
DECORAH        CLEAR     36  28  75 NE5       29.93R WCI  32
MASON CITY     PTCLDY    35  24  64 NE7       29.94R WCI  29
CHARLES CITY   PTCLDY    39  27  60 NE5       29.92R
OELWEIN        CLEAR     39  27  60 NE8       29.92R WCI  34
$$

...ELSEWHERE IN IOWA...


CITY           SKY/WX    TMP DP  RH WIND       PRES   REMARKS
DES MOINES     PTCLDY    51  26  37 CALM      29.89R
IOWA CITY      CLEAR     43  26  51 CALM      29.93R
FORT DODGE     PTCLDY    42  28  57 N8        29.91R
MARSHALLTOWN   CLEAR     45  27  49 CALM      29.89R
CEDAR RAPIDS   CLEAR     44  25  47 CALM      29.90R
$$

...NORTHERN ILLINOIS...


CITY           SKY/WX    TMP DP  RH WIND       PRES   REMARKS
CHICAGO-OHARE  PTCLDY    38  25  59 CALM      29.96R
CHICAGO-MIDWAY PTCLDY    45  26  47 CALM      29.97R
MOLINE         CLEAR     38  25  59 CALM      29.92R
ROCKFORD       PTCLDY    37  26  64 N3        29.97R
PEORIA         CLEAR     47  26  44 SW3       29.94R
$$

NOTE: "FAIR" INDICATES FEW OR NO CLOUDS BELOW 12,000 FEET WITH NO
SIGNIFICANT WEATHER AND/OR OBSTRUCTIONS TO VISIBILITY. WIND
SPEEDS ARE IN MILES-PER-HOUR.




USA.gov is the U.S. government's official web portal to all federal, state and local government web resources and services.